• In Russia
  • List of Countries
  • For 7 days
  • Water Temperature
  • Satellite Maps
  • Weather Map
  • Weather Widgets
  • user-avatar
    Login

    Hourly Weather Phin

    Today, 22 May, Tuesday

    Time Temperature Precipitation Wind Pressure Humidity
    00:00 +28°C° 0 mm 1 mps 733 mmHg 68%
    01:00 +25°C° 0 mm 0 mps 733 mmHg 70%
    02:00 +25°C° 0 mm 0 mps 733 mmHg 71%
    03:00 +24°C° 0 mm 0 mps 733 mmHg 72%
    04:00 +24°C° 0 mm 0 mps 733 mmHg 73%
    05:00 +25°C° 0 mm 0 mps 733 mmHg 69%
    06:00 +26°C° 0 mm 0 mps 734 mmHg 66%
    07:00 +27°C° 0 mm 0 mps 735 mmHg 60%
    08:00 +30°C° 0 mm 0 mps 735 mmHg 52%
    09:00 +33°C° 0 mm 0 mps 735 mmHg 43%
    10:00 +36°C° 0 mm 0 mps 735 mmHg 35%
    11:00 +38°C° 0 mm 0 mps 735 mmHg 32%
    12:00 +39°C° 0 mm 0 mps 734 mmHg 29%
    13:00 +41°C° 0 mm 1 mps 734 mmHg 30%
    14:00 +40°C° 0 mm 1 mps 734 mmHg 31%
    15:00 +40°C° 0 mm 1 mps 733 mmHg 31%
    16:00 +36°C° 0 mm 0 mps 733 mmHg 32%
    17:00 +36°C° 0 mm 1 mps 733 mmHg 37%
    18:00 +34°C° 0 mm 1 mps 733 mmHg 43%
    19:00 +32°C° 0 mm 1 mps 733 mmHg 50%
    20:00 +31°C° 0.2 mm 1 mps 734 mmHg 56%
    21:00 +30°C° 0.2 mm 1 mps 734 mmHg 61%
    22:00 +27°C° 0.2 mm 0 mps 734 mmHg 67%
    23:00 +28°C° 0.2 mm 1 mps 734 mmHg 69%

    Tomorrow, 23 May, Wednesday

    Time Temperature Precipitation Wind Pressure Humidity
    00:00 +28°C° 0.2 mm 1 mps 734 mmHg 72%
    01:00 +27°C° 0.2 mm 1 mps 734 mmHg 75%
    02:00 +27°C° 0 mm 1 mps 734 mmHg 76%
    03:00 +27°C° 0 mm 1 mps 734 mmHg 78%
    04:00 +26°C° 0 mm 1 mps 734 mmHg 80%
    05:00 +27°C° 0 mm 1 mps 734 mmHg 76%
    06:00 +28°C° 0 mm 1 mps 734 mmHg 72%
    07:00 +29°C° 0 mm 1 mps 734 mmHg 68%
    08:00 +32°C° 0 mm 1 mps 734 mmHg 58%
    09:00 +34°C° 0 mm 0 mps 735 mmHg 48%
    10:00 +37°C° 0 mm 0 mps 735 mmHg 38%
    11:00 +37°C° 0 mm 0 mps 734 mmHg 36%
    12:00 +38°C° 0 mm 0 mps 734 mmHg 35%
    13:00 +38°C° 0 mm 0 mps 733 mmHg 33%
    14:00 +37°C° 0.1 mm 0 mps 733 mmHg 36%
    15:00 +36°C° 0.1 mm 0 mps 732 mmHg 39%
    16:00 +35°C° 0.1 mm 0 mps 732 mmHg 42%
    17:00 +33°C° 0.3 mm 0 mps 732 mmHg 48%
    18:00 +33°C° 0.3 mm 1 mps 732 mmHg 54%
    19:00 +32°C° 0.3 mm 1 mps 732 mmHg 59%
    20:00 +31°C° 0.3 mm 1 mps 732 mmHg 65%
    21:00 +30°C° 0.3 mm 1 mps 733 mmHg 70%
    22:00 +28°C° 0.3 mm 1 mps 733 mmHg 75%
    23:00 +28°C° 0.2 mm 1 mps 733 mmHg 77%

    Day after tomorrow, 24 May, Thursday

    Time Temperature Precipitation Wind Pressure Humidity
    00:00 +28°C° 0.2 mm 1 mps 733 mmHg 79%
    01:00 +27°C° 0.2 mm 1 mps 733 mmHg 82%
    02:00 +27°C° 0.2 mm 1 mps 732 mmHg 83%
    03:00 +25°C° 0.2 mm 0 mps 732 mmHg 84%
    04:00 +24°C° 0.2 mm 0 mps 732 mmHg 85%
    05:00 +25°C° 0.4 mm 0 mps 733 mmHg 82%
    06:00 +26°C° 0.4 mm 0 mps 733 mmHg 79%
    07:00 +29°C° 0.4 mm 1 mps 733 mmHg 76%
    08:00 +31°C° 0.2 mm 1 mps 734 mmHg 67%
    09:00 +33°C° 0.2 mm 1 mps 734 mmHg 58%
    10:00 +37°C° 0.2 mm 2 mps 734 mmHg 48%
    11:00 +37°C° 0.2 mm 2 mps 734 mmHg 45%
    12:00 +38°C° 0.2 mm 2 mps 733 mmHg 42%
    13:00 +39°C° 0.2 mm 2 mps 733 mmHg 39%
    14:00 +39°C° 0 mm 2 mps 732 mmHg 41%
    15:00 +38°C° 0 mm 2 mps 732 mmHg 43%
    16:00 +37°C° 0 mm 1 mps 731 mmHg 44%
    17:00 +35°C° 0.3 mm 1 mps 731 mmHg 49%
    18:00 +34°C° 0.3 mm 1 mps 731 mmHg 54%
    19:00 +32°C° 0.3 mm 1 mps 731 mmHg 59%
    20:00 +31°C° 2.2 mm 1 mps 732 mmHg 68%
    21:00 +29°C° 2.2 mm 1 mps 733 mmHg 76%
    22:00 +28°C° 2.2 mm 1 mps 733 mmHg 84%
    23:00 +27°C° 0.5 mm 1 mps 733 mmHg 86%

    25 May, Friday

    Time Temperature Precipitation Wind Pressure Humidity
    00:00 +27°C° 0.5 mm 1 mps 733 mmHg 87%
    01:00 +27°C° 0.5 mm 1 mps 732 mmHg 88%
    02:00 +26°C° 0.7 mm 1 mps 732 mmHg 90%
    03:00 +26°C° 0.7 mm 1 mps 732 mmHg 91%
    04:00 +26°C° 0.7 mm 1 mps 732 mmHg 92%
    05:00 +27°C° 0.7 mm 1 mps 732 mmHg 89%
    06:00 +27°C° 0.7 mm 1 mps 733 mmHg 87%
    07:00 +28°C° 0.7 mm 2 mps 733 mmHg 85%
    08:00 +29°C° 1.2 mm 2 mps 733 mmHg 79%
    09:00 +31°C° 1.2 mm 2 mps 734 mmHg 73%
    10:00 +33°C° 1.2 mm 3 mps 734 mmHg 67%
    11:00 +34°C° 0.5 mm 3 mps 733 mmHg 63%
    12:00 +35°C° 0.5 mm 3 mps 733 mmHg 58%
    13:00 +35°C° 0.5 mm 3 mps 733 mmHg 54%
    14:00 +35°C° 0.2 mm 3 mps 732 mmHg 54%
    15:00 +35°C° 0.2 mm 3 mps 732 mmHg 54%
    16:00 +35°C° 0.2 mm 2 mps 731 mmHg 54%
    17:00 +32°C° 0.1 mm 2 mps 731 mmHg 60%
    18:00 +31°C° 0.1 mm 1 mps 732 mmHg 65%
    19:00 +29°C° 0.1 mm 1 mps 732 mmHg 70%
    20:00 +28°C° 0.1 mm 1 mps 732 mmHg 73%
    21:00 +28°C° 0.1 mm 1 mps 733 mmHg 76%
    22:00 +27°C° 0.1 mm 1 mps 733 mmHg 79%
    23:00 +27°C° 0.4 mm 1 mps 733 mmHg 80%

    26 May, Saturday

    Time Temperature Precipitation Wind Pressure Humidity
    00:00 +26°C° 0.4 mm 1 mps 733 mmHg 82%
    01:00 +26°C° 0.4 mm 1 mps 732 mmHg 83%
    02:00 +26°C° 0.8 mm 1 mps 732 mmHg 86%
    03:00 +25°C° 0.8 mm 1 mps 732 mmHg 89%
    04:00 +25°C° 0.8 mm 1 mps 732 mmHg 92%
    05:00 +25°C° 0 mm 1 mps 733 mmHg 90%
    06:00 +26°C° 0 mm 1 mps 733 mmHg 88%
    07:00 +27°C° 0 mm 1 mps 734 mmHg 85%
    08:00 +29°C° 0 mm 1 mps 734 mmHg 76%
    09:00 +31°C° 0 mm 2 mps 734 mmHg 66%
    10:00 +34°C° 0 mm 2 mps 735 mmHg 56%
    11:00 +35°C° 0 mm 2 mps 734 mmHg 52%
    12:00 +36°C° 0 mm 2 mps 733 mmHg 49%
    13:00 +37°C° 0 mm 3 mps 733 mmHg 45%
    14:00 +37°C° 0 mm 3 mps 732 mmHg 46%
    15:00 +37°C° 0 mm 2 mps 732 mmHg 47%
    16:00 +37°C° 0 mm 2 mps 731 mmHg 48%
    17:00 +35°C° 0 mm 2 mps 731 mmHg 54%
    18:00 +32°C° 0 mm 1 mps 732 mmHg 61%
    19:00 +30°C° 0 mm 1 mps 732 mmHg 68%
    20:00 +30°C° 0 mm 1 mps 732 mmHg 70%
    21:00 +29°C° 0 mm 1 mps 733 mmHg 72%
    22:00 +27°C° 0 mm 0 mps 733 mmHg 74%
    23:00 +28°C° 0 mm 1 mps 733 mmHg 75%

    27 May, Sunday

    Time Temperature Precipitation Wind Pressure Humidity
    00:00 +28°C° 0 mm 1 mps 733 mmHg 77%
    01:00 +27°C° 0 mm 1 mps 732 mmHg 78%
    02:00 +27°C° 0.5 mm 1 mps 732 mmHg 80%
    03:00 +25°C° 0.5 mm 0 mps 732 mmHg 82%
    04:00 +24°C° 0.5 mm 0 mps 732 mmHg 83%
    05:00 +25°C° 0.6 mm 0 mps 733 mmHg 83%
    06:00 +27°C° 0.6 mm 1 mps 733 mmHg 83%
    07:00 +27°C° 0.6 mm 1 mps 734 mmHg 83%
    08:00 +29°C° 0.1 mm 1 mps 734 mmHg 76%
    09:00 +30°C° 0.1 mm 1 mps 735 mmHg 70%
    10:00 +32°C° 0.1 mm 1 mps 735 mmHg 64%
    11:00 +32°C° 0.3 mm 1 mps 734 mmHg 62%
    12:00 +32°C° 0.3 mm 1 mps 734 mmHg 61%
    13:00 +33°C° 0.3 mm 1 mps 733 mmHg 60%
    14:00 +33°C° 0 mm 1 mps 733 mmHg 58%
    15:00 +33°C° 0 mm 1 mps 733 mmHg 57%
    16:00 +34°C° 0 mm 1 mps 733 mmHg 55%
    17:00 +32°C° 0 mm 1 mps 733 mmHg 61%
    18:00 +30°C° 0 mm 1 mps 733 mmHg 68%
    19:00 +29°C° 0 mm 1 mps 733 mmHg 74%
    20:00 +28°C° 0.7 mm 1 mps 733 mmHg 78%
    21:00 +27°C° 0.7 mm 1 mps 734 mmHg 82%
    22:00 +27°C° 0.7 mm 1 mps 734 mmHg 86%
    23:00 +26°C° 0.2 mm 1 mps 734 mmHg 86%
    Show more